Location: Naatula
(61.1500°N, 22.8333°E)
Time: 07:10:27
(UTC+00:00)

Daily predictions for brighter satellites

Satellite Brightness Start Highest point End
(mag) Time Altitude Azimuth Time Altitude Azimuth Time Altitude Azimuth
IRIDIUM 104 4.4 14:48:39 10° N 14:53:56 90° E 14:59:10 10° S
Cosmos 1680 Rocket 4.3 14:52:09 10° NNW 14:56:53 31° NNE 15:01:34 10° E
Cosmos 773 Rocket 4.0 14:51:53 10° NNW 14:57:05 67° NE 15:02:13 10° SE
CZ-2C R/B 3.9 14:53:31 10° ESE 14:58:20 33° NE 15:03:23 10° N
NOSS 2-3 (E) 4.3 14:53:57 10° W 14:59:07 72° N 15:05:55 10° E
PSLV R/B 3.6 14:55:45 10° SSE 14:59:29 82° ENE 15:03:17 10° NNW
SeaSat 1 2.9 14:55:12 10° NE 15:00:01 49° ESE 15:04:49 10° SSW
Cosmos 1025 Rocket 3.5 14:56:25 10° SSE 15:00:33 44° E 15:04:43 10° NNE
H-2A R/B 3.1 14:57:44 10° E 15:01:45 24° NE 15:05:52 10° N
Cosmos 1544 Rocket 4.0 14:57:58 10° NNW 15:02:20 70° W 15:06:42 10° S
Okean-O 3.8 15:00:08 10° E 15:03:33 22° NE 15:06:59 10° N
SL-19 R/B 4.4 14:58:26 10° NNE 15:03:59 64° ESE 15:09:39 10° S
H-2A R/B 2.5 15:00:13 10° SSE 15:04:17 67° ENE 15:08:33 10° NNW
Cosmos 1603 4.1 14:58:38 10° NW 15:04:19 73° SW 15:10:02 10° SSE
Meteor 2-10 Rocket 4.2 15:00:25 10° NNW 15:05:40 37° NE 15:10:43 10° ESE
CZ-4B R/B 3.3 15:00:39 10° SE 15:06:12 68° ENE 15:11:50 10° NNW
Okean O Rocket 1.7 15:01:59 10° SE 15:06:19 54° ENE 15:10:40 10° NNW
SL-24 R/B 4.3 15:02:01 10° SE 15:06:23 59° ENE 15:11:13 10° NNW
SMAP 3.0 15:02:43 10° SSE 15:07:21 67° ENE 15:12:00 10° NNW
NOSS 8 (E) 4.5 15:05:20 10° W 15:08:22 58° N 15:11:59 10° E
Cosmos 2297 Rocket 2.3 15:03:52 10° SW 15:09:33 84° SE 15:15:15 10° NE
PAYLOAD B 4.3 15:05:20 10° SSE 15:10:51 88° ENE 15:16:27 10° NNW
YAOGAN 6 2.7 15:07:29 10° SSE 15:11:04 84° WSW 15:14:44 10° NNW
Cosmos 1626 3.2 15:08:17 10° SE 15:11:23 25° E 15:14:28 10° NNE
Spot 2 4.2 15:06:52 10° SSE 15:11:25 87° WSW 15:15:44 10° NNW
USA 234 3.7 15:07:16 10° E 15:13:46 63° S 15:20:17 10° WSW
AQUARIUS 4.1 15:10:25 10° SSE 15:14:53 68° ENE 15:19:23 10° NNW
Cosmos 1606 Rocket 3.8 15:11:12 10° N 15:15:26 46° ENE 15:19:41 10° SE
ATLAS 3B R/B 4.1 15:10:02 10° WNW 15:16:28 44° SW 15:23:07 10° SSE
H-2A R/B 3.2 15:13:57 10° NE 15:17:47 27° E 15:21:33 10° SSE
Cosmos 1975 Rocket 3.2 15:13:46 10° SSW 15:18:08 80° WNW 15:22:31 10° NNE
NOSS 2-2 (D) 3.5 15:17:05 10° WSW 15:20:55 76° NNW 15:25:39 11° ENE
ATLAS 5 CENTAUR R/B 3.4 15:19:09 10° SSE 15:21:47 16° ESE 15:24:32 10° E
Tsikada Rocket 4.1 15:15:49 10° S 15:21:56 56° E 15:28:01 10° NNE
Cosmos 2082 3.9 15:16:28 10° SSW 15:22:06 60° ESE 15:27:43 10° NE
FengYun 1-2 T 4.2 15:17:47 10° SSE 15:23:21 73° ENE 15:29:00 10° NNW
KORONAS-FOTON 4.0 15:19:42 10° S 15:23:32 55° E 15:27:24 10° NNE
Cosmos 2346 Rocket 4.4 15:18:00 10° S 15:24:02 76° E 15:30:09 10° NNE
CZ-2D R/B 3.9 15:21:39 10° SE 15:25:09 33° ENE 15:28:39 10° N
CZ-4C R/B 3.6 15:22:35 10° NNE 15:25:28 31° E 15:28:19 10° SSE
YAOGAN 1 3.5 15:22:29 10° ESE 15:26:08 27° NE 15:29:48 10° N
NOAA 12 4.1 15:21:12 10° SSE 15:26:27 90° W 15:31:45 10° NNW
Cosmos 2228 3.0 15:23:35 10° N 15:27:48 60° ENE 15:32:03 10° SSE
Cosmos 1816 Rocket 4.5 15:22:15 10° S 15:28:24 67° E 15:34:31 10° NNE
Cosmos 1400 Rocket 3.8 15:25:21 10° NNW 15:29:23 52° W 15:33:22 10° S
Aureole 3 4.3 15:26:50 10° N 15:30:15 23° NE 15:33:09 10° ESE
Cosmos 1538 Rocket 3.9 15:25:21 10° NNW 15:30:34 71° NE 15:35:44 10° SE
CZ-4C R/B 2.8 15:25:40 10° SSW 15:30:41 44° SE 15:36:07 13° ENE
SL-16 R/B 3.8 15:26:17 10° NNE 15:31:49 36° NW 15:37:21 10° WSW
NOSS 2-3 (D) 4.4 15:26:54 10° WNW 15:32:11 76° NNE 15:39:09 10° E
Helios 1A Rocket 3.9 15:29:26 10° ESE 15:32:54 26° NE 15:36:21 10° N
SL-14 R/B 4.0 15:29:24 10° SSE 15:32:55 32° E 15:36:27 10° NNE
RESURS DK-1 3.4 15:29:34 10° S 15:33:08 28° ESE 15:35:58 14° ENE
Cosmos 2112 Rocket 4.5 15:29:37 10° NNW 15:34:37 40° NE 15:39:33 10° ESE
Meteor 2-5 Rocket 4.1 15:29:48 10° SSE 15:34:55 40° E 15:40:03 10° NNE
EP 3 3.7 15:35:43 10° W 15:37:35 54° NNW 15:38:32 24° ENE
CORIOLIS 4.3 15:37:21 10° SSE 15:42:46 82° WSW 15:48:11 10° NNW
Cosmos 2263 Rocket 2.9 15:37:45 10° S 15:42:52 36° ESE 15:47:14 14° NE
COSMOS 2406 3.7 15:39:54 10° NW 15:45:26 43° NNE 15:50:37 12° E
Cosmos 2058 Rocket 3.3 15:42:21 10° N 15:46:44 48° ENE 15:51:06 10° SE
Cosmos 968 Rocket 3.5 15:42:04 10° SSW 15:47:07 64° ESE 15:51:58 11° NE
Cosmos 1455 2.9 15:43:46 10° N 15:47:11 30° ENE 15:50:35 10° SE
Envisat 4.3 15:42:40 10° S 15:47:32 45° W 15:52:26 10° NNW
NOAA 11 4.3 15:42:27 10° SSE 15:47:59 83° WSW 15:53:32 10° NNW
ADEOS Rocket 3.2 15:42:24 10° NNE 15:48:51 77° WNW 15:54:38 10° SSW
Genesis I 3.3 15:45:29 10° WSW 15:49:21 66° NNW 15:52:09 18° ENE
NOSS 8 (F) 4.5 15:46:42 10° WNW 15:49:49 63° N 15:52:33 17° E
NOSS 3-1 (C) 3.9 15:43:24 10° WNW 15:50:05 87° NNE 15:58:08 10° ESE
Cosmos 1300 2.8 15:47:42 10° NNW 15:51:34 83° WSW 15:55:23 10° S
SL-08 R/B 4.1 15:47:27 10° NNE 15:51:56 51° WNW 15:56:27 10° SW
Aureole 3 Rocket 4.4 15:50:59 10° NNE 15:51:41 13° NNE 15:51:41 13° NNE
In-Cosmos 22 4.3 15:48:05 10° SSW 15:53:31 75° WNW 15:58:52 10° NNE
Resurs 01 Rocket 3.7 15:53:45 11° NNE 15:53:45 11° NNE 15:54:56 10° NNE
Timation 2 Rocket 4.4 15:46:57 10° SW 15:53:50 73° NW 16:00:09 13° NE
NOSS 2-3 (C) 4.4 15:49:04 10° WNW 15:54:30 83° NNE 16:01:41 10° ESE
Landsat 5 3.3 15:51:08 10° NNE 15:55:10 62° ESE 15:59:03 10° S
Cosmos 1486 Rocket 4.0 15:52:21 10° SSW 15:57:34 70° ESE 16:02:20 12° NE
Lacrosse 5 3.1 15:54:10 10° W 15:58:52 39° SSW 16:03:34 10° SE
ARGOS 3.6 15:55:20 10° ESE 16:00:18 40° NE 16:05:19 10° NNW
Cosmos 1726 Rocket 3.5 15:58:11 10° NNW 16:02:34 84° ENE 16:06:58 10° SSE
Cosmos 909 Rocket 4.3 15:57:24 10° W 16:03:44 59° N 16:08:25 19° ENE
USA 290 3.8 16:03:34 10° NNW 16:06:03 20° NNE 16:06:05 20° NE
ERS-2 3.9 16:07:29 16° ESE 16:07:29 16° ESE 16:08:55 10° SE
USA 229 DEB 3.8 16:00:05 10° WNW 16:07:07 86° NNE 16:14:20 11° ESE
USA 229 3.8 16:00:11 10° WNW 16:07:12 86° NNE 16:14:23 11° ESE
COSMOS 2455 4.0 16:04:12 10° SSE 16:08:48 23° ESE 16:10:52 19° E
NOSS 2-2 (C) 3.7 16:04:51 10° W 16:08:50 67° N 16:12:03 22° ENE
Cosmos 1833 Rocket 3.0 16:03:34 10° NW 16:09:00 46° NNE 16:12:57 18° E
Meteor 1-24 Rocket 3.7 16:04:03 10° S 16:09:12 52° E 16:14:22 10° NNE
CSL-04 Debris 4.4 16:05:01 10° SE 16:10:10 47° ENE 16:15:19 10° NNW
Cosmos 2082 Rocket 2.8 16:05:20 10° NW 16:10:43 39° NNE 16:14:03 21° E
Cosmos 1939 Rocket 3.0 16:08:38 10° SSE 16:12:45 80° WSW 16:16:52 10° NNW
USA 281 3.8 16:09:49 19° E 16:13:53 37° NNE 16:19:47 10° NW
Cosmos 2279 Rocket 4.1 16:08:16 10° NNW 16:14:34 82° W 16:20:51 10° S
NOSS 3-4 (A) 3.5 16:09:04 10° SW 16:15:05 73° SSE 16:19:40 21° ENE
NOSS 3-4 (C) 3.5 16:09:14 10° SW 16:15:15 73° SSE 16:19:49 21° ENE
Cosmos 2219 3.8 16:09:45 10° WSW 16:15:24 55° NW 16:20:01 15° NE
Cosmos 1315 Rocket 3.9 16:12:45 10° NNW 16:16:34 47° W 16:20:24 10° S
IRS-1C Rocket 4.0 16:13:25 10° SSE 16:18:41 83° ENE 16:23:59 10° NNW
Feng Yun 1-1 Rocket 4.3 16:14:20 10° SSE 16:19:48 81° WSW 16:25:28 10° NNW
Cosmos 1674 3.6 16:16:50 10° SW 16:20:35 49° WNW 16:24:22 10° N
COSMO-SKYMED 1 3.0 16:18:24 17° NE 16:21:22 39° E 16:25:27 10° SSE
NOSS 3-1 (A) 3.8 16:15:53 10° WNW 16:22:35 87° NNE 16:29:28 15° ESE
CZ-4 R/B 1.3 16:20:49 10° SSE 16:24:53 69° ENE 16:28:53 10° NNW
Cosmos 1503 Rocket 4.0 16:20:12 10° SSW 16:25:33 71° ESE 16:29:41 17° NE
Cosmos 2227 4.3 16:21:09 10° SSW 16:26:41 59° ESE 16:30:23 22° NE
Cosmos 1536 Rocket 4.1 16:22:43 10° SSW 16:27:05 59° WNW 16:31:31 10° N
Cosmos 2227 Rocket 2.8 16:23:59 10° WSW 16:29:33 54° NW 16:33:49 17° NE
SL-08 RB Rocket 4.1 16:27:10 16° ESE 16:30:20 40° ENE 16:34:34 10° N
Ariane Rocket 3.8 16:29:52 27° ENE 16:31:09 30° NE 16:35:34 10° N
Cosmos 405 4.4 16:28:11 10° N 16:30:11 23° NNE 16:30:11 23° NNE
Cosmos 923 Rocket 4.0 16:26:52 10° NW 16:32:16 89° NE 16:37:38 10° SSE
ATLAS 2AS CENTAUR R/B 3.0 16:25:03 10° SW 16:32:59 76° SE 16:38:04 24° ENE
NOSS 2-2 (E) 3.8 16:30:00 10° WNW 16:34:12 68° N 16:36:49 29° E
CZ-4B R/B 1.5 16:35:08 42° ENE 16:35:49 50° ESE 16:39:07 10° S
CSL-04 DEB 4.5 16:33:00 17° NNE 16:36:12 61° ESE 16:40:19 10° S
Cosmos 1844 Rocket 3.7 16:32:59 10° SSE 16:37:31 25° ESE 16:37:42 25° ESE
SeaSat 1 3.0 16:34:02 18° NE 16:37:40 56° NW 16:42:29 10° WSW
CZ-2C R/B 3.3 16:32:23 10° SSE 16:37:49 79° WSW 16:43:33 10° NNW
Cosmos 158 Rocket 4.1 16:32:54 10° NW 16:38:13 81° WSW 16:43:36 10° SSE
Cosmos 1025 Rocket 4.5 16:34:11 10° SW 16:38:15 38° WNW 16:42:23 10° N
Cosmos 2344 4.1 16:30:04 10° WNW 16:38:21 85° SSW 16:49:28 10° ESE
Okean-O 2.5 16:35:05 10° SSE 16:39:32 84° ENE 16:44:01 10° NNW
Cosmos 1680 Rocket 3.4 16:34:24 10° NNW 16:39:43 84° ENE 16:44:58 10° SE
H-2A R/B 1.9 16:35:33 10° SSE 16:40:34 79° ENE 16:45:47 10° NNW
Okean O Rocket 3.5 16:38:53 10° SSW 16:42:55 33° W 16:46:56 10° NNW
Cosmos 1626 3.0 16:42:48 10° SW 16:46:24 49° WNW 16:49:59 10° N
Meteor 2-10 Rocket 4.1 16:42:33 10° NNW 16:48:09 65° W 16:53:30 10° S
Timation 1 Rocket 4.5 16:44:27 10° SW 16:50:29 73° NW 16:54:23 23° NE
Cosmos 2297 Rocket 3.1 16:48:46 10° W 16:54:08 42° NNW 16:57:33 21° NNE
H-2A R/B 2.4 16:49:39 10° NNE 16:54:09 67° WNW 16:58:33 10° SSW
HJ-1C 3.2 16:54:02 68° E 16:54:12 70° ENE 16:57:33 10° NNW
USA 234 3.6 16:52:59 22° ESE 16:57:22 59° SSW 17:03:52 10° W
CZ-4C R/B 4.4 16:55:52 14° N 16:58:12 32° WNW 17:01:03 10° SW
CZ-2D R/B 4.5 16:55:46 10° S 16:59:27 43° W 17:03:10 10° NNW
Meteor 2-1 Rocket 4.4 16:55:40 10° NNW 17:01:18 75° WSW 17:06:49 10° S
CSL-04 Rocket 3.6 16:56:02 10° SSE 17:01:29 83° ENE 17:07:03 10° NNW
YAOGAN 1 2.8 16:57:37 10° S 17:01:56 71° WSW 17:06:18 10° NNW
Iridium 4 Rocket 3.7 16:56:52 10° N 17:02:42 61° ENE 17:08:09 10° SSE
Cosmos-2242 3.5 16:58:54 10° N 17:02:17 40° NE 17:02:17 40° NE
Cosmos 1892 Rocket 3.4 16:59:01 10° S 17:03:23 86° E 17:06:20 20° NNE
MOS 1 Rocket 3.0 17:01:39 30° NNE 17:03:41 67° ESE 17:07:58 10° S
Meteor 1-27 4.4 16:58:18 10° NNW 17:03:49 47° ENE 17:05:17 39° ESE
Cosmos 1092 Rocket 4.1 16:59:03 10° SSE 17:04:54 47° E 17:10:45 10° NNE
ATLAS 5 CENTAUR R/B 1.8 17:01:10 10° SW 17:05:21 56° SE 17:06:05 49° ESE
Cosmos 2082 4.3 17:00:49 10° WSW 17:06:24 52° NW 17:09:44 24° NNE
Helios 1A Rocket 3.1 17:03:35 10° SSE 17:07:44 72° WSW 17:11:55 10° NNW
Cosmos 1812 Rocket 3.4 17:04:07 10° NNW 17:08:35 78° ENE 17:11:36 20° SSE
SL-14 R/B 4.4 17:05:16 10° SW 17:09:00 42° WNW 17:12:31 12° N
SKYMED 2 3.4 17:06:57 24° NNE 17:09:35 87° ESE 17:13:58 10° SSW
SJ-6B 4.2 17:11:20 26° N 17:11:20 26° N 17:13:22 10° N
RESURS DK-1 2.5 17:06:45 10° SW 17:10:54 72° NW 17:11:52 50° NNE
NOSS 2-2 (D) 3.8 17:07:35 10° WNW 17:11:49 72° N 17:13:02 50° ENE
Aureole 3 3.8 17:08:34 10° NNW 17:12:33 55° W 17:15:49 10° S
Cosmos 2112 Rocket 4.2 17:11:52 10° NW 17:17:09 69° WSW 17:21:52 13° SSE
CZ-3B R/B 4.0 17:15:46 10° WSW 17:17:48 18° S 17:20:09 13° SSE
Meteor 2-5 Rocket 4.3 17:12:47 10° SW 17:18:14 55° WNW 17:23:42 10° NNE
CZ-4C R/B 2.4 17:13:12 10° WSW 17:18:50 88° NNW 17:21:18 41° ENE
SJ 16-02 2.6 17:16:42 10° S 17:18:57 27° SSE 17:18:57 27° SSE
Nadezhda 4 Rocket 3.8 17:16:03 10° S 17:22:17 80° E 17:28:30 10° NNE
Cosmos 1455 3.3 17:19:18 10° NNW 17:22:56 44° W 17:26:35 10° SSW
Cosmos 1777 Rocket 3.9 17:19:05 10° SSW 17:24:22 80° ESE 17:26:00 46° NE
MetOp-A 4.0 17:23:08 41° SE 17:24:56 68° ENE 17:30:17 10° NNW
MOS 1 4.3 17:24:37 46° ESE 17:26:04 61° ENE 17:31:43 10° NNW
Cosmos 2263 Rocket 2.3 17:20:48 10° SW 17:26:30 76° NW 17:28:56 36° NE
Genesis I 3.7 17:23:30 10° WNW 17:27:02 50° NNW 17:27:02 50° NNW
TRAILBLAZER 4.4 17:23:30 10° WNW 17:28:08 81° NNE 17:28:26 76° ENE
Resurs 01 Rocket 3.4 17:31:18 20° N 17:31:18 20° N 17:32:59 10° N
Terra 4.1 17:31:32 12° NNE 17:31:32 12° NNE 17:32:16 10° N
COSMOS 2406 3.2 17:24:27 10° NW 17:30:18 83° SW 17:32:43 37° SSE
Cosmos 1354 Rocket 4.5 17:25:43 10° SW 17:31:00 61° NW 17:33:42 29° NNE
ERS-2 3.6 17:42:03 30° SSW 17:42:03 30° SSW 17:43:59 10° SSW
ARGOS 3.7 17:35:11 10° S 17:40:29 59° WSW 17:45:50 10° NNW
Meteor 2-13 Rocket 4.4 17:34:39 10° SSW 17:40:48 87° W 17:47:02 10° NNE
Lacrosse 5 4.3 17:37:33 10° W 17:40:51 18° SW 17:44:08 10° S
USA 290 4.5 17:37:40 10° NW 17:38:50 20° NNW 17:38:50 20° NNW
CZ-2C R/B 4.5 17:45:50 18° S 17:45:50 18° S 17:47:15 10° S
PSLV R/B 4.4 17:43:31 56° SSW 17:43:31 56° SSW 17:46:52 10° SSW
Cosmos 1417 Rocket 4.3 17:37:21 10° NNW 17:43:33 73° ENE 17:45:24 47° SE
Cosmos 2315 Rocket 4.5 17:37:56 10° N 17:43:05 41° NE 17:43:05 41° NE
Okean 1-7 Rocket 4.0 17:40:30 10° SSW 17:45:02 65° WNW 17:47:05 32° N
Cosmos 1553 Rocket 3.9 17:41:32 10° NNW 17:48:01 84° ENE 17:51:29 30° SSE
Cosmos 1833 Rocket 2.8 17:47:41 10° NW 17:53:18 71° SW 17:54:41 51° S
COSMOS 2455 2.7 17:47:53 10° SW 17:53:53 69° SE 17:54:02 68° ESE
Cosmos 2082 Rocket 2.0 17:49:42 10° NW 17:55:30 85° NE 17:55:56 77° ESE
COSMO-SKYMED 1 3.6 17:55:36 26° N 17:57:38 44° WNW 18:01:46 10° SW
USA 281 3.1 17:56:41 61° ESE 17:57:47 74° NE 18:04:21 10° NW
USA 229 DEB 4.4 17:51:03 10° WNW 17:57:56 53° SW 18:01:49 28° SSE
USA 229 4.4 17:51:09 10° WNW 17:58:02 53° SW 18:01:52 28° SSE
Cosmos 1844 4.3 17:53:13 10° SSW 17:57:10 43° S 17:57:10 43° S
Cosmos 2026 Rocket 3.8 17:53:13 10° S 17:59:20 76° E 18:05:35 10° NNE
NOSS 2-2 (C) 3.9 17:55:17 10° WNW 17:59:27 81° NW 17:59:27 81° NW
CZ-4 R/B 3.8 17:57:02 10° SW 18:00:18 23° W 18:03:33 10° NW
Cosmos 2219 4.4 17:55:32 10° WNW 18:00:39 32° N 18:01:56 29° NNE
Cosmos 909 Rocket 4.0 17:58:25 10° WNW 18:04:43 71° NNE 18:05:19 66° ENE
NOSS 3-4 (A) 3.5 17:59:55 10° W 18:06:08 75° N 18:07:06 64° NE
NOSS 3-4 (C) 3.5 18:00:04 10° W 18:06:18 75° N 18:07:15 64° NE
CZ-4B R/B 3.7 18:08:14 25° WNW 18:08:14 25° WNW 18:10:41 10° WSW
Ariane Rocket 3.1 18:10:03 75° WNW 18:10:03 75° WNW 18:14:54 10° NNW
S3M 3.8 18:03:38 10° NNW 18:09:49 84° ENE 18:10:11 79° SE
IRS-1A Rocket 4.4 18:09:38 52° S 18:11:09 78° WSW 18:17:05 10° NNW
NOSS 3-1 (A) 4.5 18:06:38 10° WNW 18:13:27 53° SW 18:16:57 32° SSE
SeaSat 1 3.9 18:13:48 28° N 18:14:35 29° NNW 18:18:49 10° WNW
Cosmos 2227 Rocket 3.4 18:09:39 10° WNW 18:14:44 32° N 18:15:38 31° N
H-2A R/B 4.0 18:16:24 10° SW 18:20:37 26° W 18:24:57 10° NNW
Cosmos 1844 Rocket 3.1 18:15:06 10° SW 18:19:25 54° SSW 18:19:25 54° SSW
ATLAS 2AS CENTAUR R/B 2.9 18:16:20 10° W 18:24:16 76° N 18:25:30 63° NE
NOSS 2-2 (E) 4.4 18:20:20 10° WNW 18:24:12 62° W 18:24:12 62° W
Cosmos 2098 Rocket 4.3 18:29:10 10° SSW 18:36:32 84° WNW 18:43:55 10° NNE
Cosmos 2297 Rocket 3.5 18:34:29 10° WNW 18:39:21 31° N 18:39:21 31° N
USA 234 4.1 18:40:20 36° SSW 18:41:14 38° SSW 18:47:16 10° W
ATLAS 5 CENTAUR R/B 3.4 18:45:25 10° W 18:47:38 30° W 18:47:38 30° W
SJ 16-02 4.0 18:55:15 10° WSW 18:55:59 14° WSW 18:55:59 14° WSW
Resurs 01 Rocket 4.2 19:08:51 16° NNW 19:08:51 16° NNW 19:09:47 10° NNW
Terra 4.4 19:10:24 13° N 19:10:24 13° N 19:10:54 10° N
CZ-4C R/B 3.0 19:01:44 10° W 19:06:30 58° WNW 19:06:30 58° WNW
Cosmos 2263 Rocket 3.5 19:05:59 10° W 19:10:38 36° NW 19:10:38 36° NW
Cosmos 2082 Rocket 4.0 19:34:10 10° NW 19:37:47 28° W 19:37:47 28° W
COSMOS 2455 4.4 19:34:05 10° WSW 19:37:13 31° W 19:37:13 31° W
USA 281 4.2 19:43:32 40° W 19:43:32 40° W 19:48:56 10° NW
Cosmos 2227 Rocket 4.3 19:55:01 10° NW 19:57:27 23° NNW 19:57:27 23° NNW
ATLAS 2AS CENTAUR R/B 3.8 20:07:57 10° WNW 20:12:56 43° WNW 20:12:56 43° WNW
